Location: Dibden
(50.8667°N, 1.4333°W)
Time: 07:04:12
(UTC+00:00)

Daily predictions for brighter satellites

Satellite Brightness Start Highest point End
(mag) Time Altitude Azimuth Time Altitude Azimuth Time Altitude Azimuth
Meteor 1-16 Rocket 4.3 20:59:59 10° NNW 21:05:29 81° W 21:10:48 10° S
Resurs 01 Rocket 2.6 21:02:39 10° S 21:06:52 45° W 21:11:08 10° NNW
Cosmos 1340 3.4 21:08:35 10° SSE 21:12:02 35° E 21:15:30 10° NNE
USA 267 4.1 21:06:58 10° ENE 21:13:17 53° N 21:19:36 10° WNW
Aureole 1 Rocket 4.4 21:07:49 10° NNW 21:13:43 70° WSW 21:21:13 10° SSE
Cosmos 2278 Rocket 3.2 21:09:27 10° NNW 21:14:43 37° NE 21:19:58 10° ESE
Cosmos 2322 4.1 21:09:46 10° S 21:15:04 43° ESE 21:20:24 10° NE
Cosmos 1844 Rocket 3.2 21:10:22 10° NW 21:15:55 56° WSW 21:21:26 10° S
SPOT 3 Rocket 4.4 21:11:45 10° S 21:16:45 49° W 21:21:50 10° NNW
COSMOS 2428 3.5 21:11:52 10° SSE 21:16:53 32° ESE 21:21:56 10° NE
Cosmos 389 Rocket 4.2 21:18:40 10° NNE 21:21:17 20° ENE 21:23:53 10° ESE
Cosmos 2237 4.5 21:15:37 10° SW 21:21:18 77° WNW 21:27:02 10° NNE
Cosmos 1867 3.9 21:17:41 10° NW 21:23:10 66° NE 21:28:37 10° SE
SL-23 DEB 4.3 21:22:54 10° W 21:26:37 84° N 21:32:46 10° E
Cosmos 968 Rocket 3.7 21:23:23 10° NNW 21:28:29 63° ENE 21:33:29 10° SE
Cosmos 1908 4.2 21:27:06 10° NNW 21:30:50 45° W 21:34:31 10° SSW
JB-3 4.3 21:27:06 10° NNE 21:31:07 82° ESE 21:35:09 10° S
Cosmos 1486 Rocket 4.4 21:28:48 10° NNW 21:33:57 55° ENE 21:38:52 11° SE
Cosmos 1544 Rocket 3.9 21:29:47 10° NNW 21:34:14 66° W 21:38:38 10° S
Cosmos 1110 Rocket 4.2 21:29:44 10° SSW 21:34:55 79° WNW 21:40:12 10° NNE
Cosmos 1626 2.2 21:31:14 10° SSW 21:34:56 83° W 21:38:40 10° N
Cosmos 2061 Rocket 4.1 21:29:29 10° N 21:35:59 87° E 21:42:23 10° S
FALCON 9 DEB 3.1 21:32:51 10° WSW 21:36:17 87° NNW 21:39:43 10° ENE
Cosmos 2123 Rocket 4.1 21:31:32 10° S 21:37:48 71° E 21:44:07 10° NNE
Meteor 2-10 Rocket 4.0 21:33:13 10° N 21:38:07 46° ENE 21:42:36 12° SE
Cosmos 1455 Rocket 4.4 21:34:23 10° NNW 21:38:32 38° W 21:42:39 10° SSW
Cosmos 2233 Rocket 4.2 21:33:39 10° N 21:39:45 60° ENE 21:45:35 11° SSE
Cosmos 1943 Rocket 4.3 21:36:00 10° N 21:39:46 18° NNE 21:43:31 10° ENE
ARIANE 5 R/B 3.1 21:39:06 10° S 21:43:31 60° W 21:47:59 10° NNW
Cosmos 1346 Rocket 3.8 21:47:04 13° SSE 21:50:04 31° E 21:53:40 10° NNE
Cosmos 405 3.3 21:46:52 10° NNW 21:50:17 59° W 21:53:33 11° S
ATLAS CENTAUR R/B 2.5 21:46:32 10° NW 21:50:33 37° WSW 21:54:30 11° S
Cosmos 2333 4.3 21:48:28 10° SSW 21:54:14 89° WNW 21:59:59 10° NNE
ATLAS 3B R/B 2.6 21:50:18 10° SSW 21:56:50 75° SE 22:03:38 10° NE
SL-4 R/B 3.1 21:55:32 10° SSW 21:58:48 22° SE 22:01:53 10° E
FALCON 9 DEB 3.0 21:57:33 10° SW 22:00:36 52° SSE 22:03:40 10° ENE
Cosmos 2016 Rocket 4.5 21:58:27 10° NNW 22:04:24 57° W 22:10:23 10° S
CZ-4B DEB 4.3 22:03:26 16° S 22:05:55 73° W 22:09:04 10° NNW
Cosmos 2219 Rocket 2.2 22:01:04 10° SSW 22:06:46 84° ESE 22:12:28 10° NNE
Cosmos 1607 4.1 22:00:38 10° NW 22:07:07 76° NE 22:12:53 13° SE
Cosmos 1025 Rocket 4.2 22:03:18 10° SW 22:07:28 42° WNW 22:11:38 10° N
Meteor 2-5 Rocket 3.7 22:01:58 10° S 22:07:31 87° E 22:13:12 10° NNE
Lacrosse 5 rocket 1.4 22:04:24 10° WSW 22:08:02 66° NNW 22:11:37 10° NE
Cosmos 2333 Rocket 2.3 22:02:39 10° SSW 22:08:25 84° WNW 22:14:11 10° NNE
ERS-1 Rocket 3.7 22:04:16 10° S 22:09:09 50° W 22:14:04 10° NNW
Cosmos 1536 Rocket 3.9 22:06:08 10° SSW 22:10:35 70° WNW 22:15:02 10° N
Cosmos 2228 3.1 22:06:16 10° N 22:10:41 74° ENE 22:14:06 17° SSE
FALCON 9 DEB 2.7 22:13:02 10° WSW 22:16:07 79° SSE 22:19:13 10° ENE
USA 215 4.0 22:14:37 10° ENE 22:20:09 29° SE 22:25:28 11° S
SL-24 R/B 4.4 22:15:26 10° N 22:20:18 82° W 22:24:49 12° S
FALCON 9 DEB 2.7 22:21:03 10° WSW 22:24:10 75° SSE 22:27:17 10° ENE
Terra 2.5 22:20:12 12° S 22:24:24 49° W 22:29:03 10° NNW
SL-16 R/B 3.9 22:23:55 13° SE 22:26:24 16° E 22:29:48 10° ENE
FALCON 9 DEB 2.7 22:23:35 10° WSW 22:26:42 86° SSE 22:29:49 10° ENE
Cosmos 1455 2.5 22:23:50 10° N 22:27:36 55° ENE 22:29:59 21° SSE
Cosmos 2237 Rocket 2.7 22:23:45 15° S 22:27:59 42° ESE 22:33:16 10° NE
Cosmos 1464 Rocket 4.4 22:23:15 10° N 22:29:32 55° ENE 22:34:26 17° SSE
Cosmos 1184 Rocket 3.9 22:29:49 21° SE 22:31:08 29° E 22:34:00 10° NNE
Cosmos 2360 Rocket 3.9 22:26:29 10° WSW 22:31:37 34° NW 22:36:45 10° NNE
SPOT 5 4.3 22:27:53 10° SSW 22:32:24 32° W 22:36:45 10° NNW
H-2A R/B 3.6 22:28:23 10° NNE 22:32:29 75° WNW 22:36:19 11° SSW
Cosmos 1503 Rocket 4.1 22:28:37 10° NNW 22:34:02 87° WSW 22:37:58 19° SSE
Cosmos 2369 Rocket 4.2 22:29:35 10° NNW 22:34:05 23° NE 22:38:34 10° E
Meteor 1-24 Rocket 4.0 22:33:59 10° SSW 22:39:19 67° WNW 22:44:53 10° N
GEOS 3 Rocket 3.8 22:38:08 14° SE 22:42:48 79° NE 22:48:10 10° NW
ATLAS CENTAUR R/B 3.9 22:40:45 19° S 22:44:10 35° ESE 22:54:29 10° NE
USA 267 3.4 22:49:26 10° ESE 22:55:59 77° NNE 23:02:32 10° WNW
Cosmos 389 Rocket 3.7 22:52:54 10° NNW 22:56:00 32° W 22:58:04 17° SSW
Okean 1-7 Rocket 4.0 22:54:15 23° SSE 22:56:46 48° E 23:01:03 10° NNE
BREEZE-M DEB (TANK) 2.5 22:55:33 10° WSW 22:58:36 72° SSE 23:06:43 10° E
GENESIS II 4.1 22:54:50 10° SW 22:58:43 82° SE 23:02:39 10° NE
Cosmos 2278 Rocket 2.7 22:53:32 10° NW 22:58:59 49° WSW 23:02:45 20° S
COSMOS 2428 3.5 22:55:20 10° SW 23:00:56 53° NW 23:06:36 10° NNE
Cosmos 1726 Rocket 4.0 22:56:42 10° NNW 23:01:05 55° W 23:03:59 20° SSW
Cosmos 2297 4.2 22:55:59 10° NNW 23:01:32 56° NE 23:06:11 15° SE
Cosmos 2058 Rocket 3.0 22:57:16 10° NNW 23:01:45 85° W 23:04:24 24° S
Cosmos 2034 Rocket 4.1 22:59:31 10° N 23:05:43 70° ENE 23:10:01 21° SSE
NOSS 0 Rocket 4.0 23:02:39 10° SSW 23:08:53 85° WNW 23:15:12 10° NNE
FALCON 9 DEB 3.7 23:09:57 10° WNW 23:13:20 58° N 23:16:43 10° E
SJ 16-02 2.0 23:10:16 10° NNW 23:14:31 48° ENE 23:17:27 19° SE
Meteor 1-21 Rocket 4.2 23:14:30 21° S 23:18:26 81° E 23:24:14 10° NNE
Cosmos 1777 Rocket 4.0 23:14:16 10° NNW 23:19:35 84° WSW 23:22:56 23° SSE
Spot 4 4.1 23:20:17 23° S 23:23:10 60° WSW 23:27:55 10° NNW
GP-B 4.1 23:19:31 10° NNE 23:23:37 35° E 23:26:01 20° SE
Cosmos 1892 Rocket 4.1 23:21:07 17° SSW 23:24:20 56° WNW 23:28:45 10° N
Cosmos 1943 Rocket 2.4 23:19:08 10° NNW 23:24:38 65° ENE 23:28:53 17° SE
Meteor 1-4 Rocket 2.4 23:21:40 10° N 23:25:10 78° ENE 23:26:36 33° SSE
MTI 4.5 23:28:53 10° NNE 23:31:45 36° E 23:32:27 31° SE
Cosmos 1441 Rocket 3.2 23:29:44 26° SSW 23:31:48 77° WNW 23:35:37 10° N
FALCON 9 DEB 3.4 23:33:13 10° W 23:36:20 59° N 23:39:26 10° ENE
ALOS 2 2.7 23:35:17 27° S 23:37:38 71° WSW 23:42:02 10° NNW
SL-4 R/B 1.7 23:34:00 10° WSW 23:38:00 70° SSE 23:41:42 10° ENE
Tsikada Rocket 4.1 23:34:13 23° S 23:38:14 67° E 23:44:21 10° NNE
Lacrosse 4 Rocket 4.2 23:35:51 10° N 23:38:24 16° NNE 23:40:55 10° ENE
Cosmos 1980 4.1 23:33:21 10° SW 23:38:59 63° NW 23:44:40 10° NNE
USA 229 DEB 4.5 23:38:46 21° SSE 23:41:51 32° ESE 23:47:43 10° NE
USA 229 4.5 23:38:53 21° SSE 23:41:58 32° ESE 23:47:48 10° NE
Cosmos 1703 3.8 23:44:01 22° SW 23:46:20 53° WNW 23:50:14 10° N
Lacrosse 5 rocket 3.1 23:44:19 10° WNW 23:47:34 31° N 23:50:48 10° ENE
ATLAS 3B R/B 4.0 23:41:52 10° W 23:48:05 40° NNW 23:54:35 10° NE
NOSS 3-1 (C) 3.6 23:46:44 24° S 23:49:45 48° ESE 23:55:46 10° NE
Cosmos 2219 Rocket 4.3 23:46:47 10° W 23:51:26 25° NW 23:56:05 10° NNE
FALCON 9 DEB 3.6 23:48:47 10° W 23:51:51 54° N 23:54:54 10° ENE
Cosmos 1626 Rocket 3.6 23:49:24 26° SSW 23:51:54 80° WNW 23:56:21 10° N
Elektron 1 4.0 23:50:07 10° WNW 23:53:07 48° SW 23:53:44 40° S
OPS 6432 4.2 23:50:53 10° NW 23:53:51 65° SW 23:54:59 36° SSE
Cosmos 1408 4.3 23:53:09 18° ESE 23:54:38 23° E 23:57:38 10° NE
Cosmos 1898 Rocket 4.3 23:49:51 10° NNW 23:54:56 46° ENE 23:59:28 12° SE
Cosmos 1825 4.4 23:54:28 12° ESE 23:56:16 16° E 23:58:34 10° NE
